Погода в Новогорском

Россия / Удмуртская Республика     56°04′50″N   52°10′13″E
темп.,
°C
ветер,
м/с
пор.,
м/с
влажн.,
%
обл.,
%
осадки,
мм/ч
давл.,
гПа
погр.,
м
8 августа, пн
пн801:00+21сз116751 0.0 102011
04:00+20с117091 0.0 102011
07:00+22сз117047 0.0 102055
10:00+26в015462 0.0 1020664
13:00+29сз124272 0.0 10202326
16:00+26ссз1254100 0.0 101920
19:00+23зсз476971 0.1 1019141
22:00+22ссв237375 0.1 101935
9 августа, вт
вт901:00+21ссв117551 0.0 102011
04:00+18всв117355 0.0 102011
07:00+21св1165100 0.0 102069
10:00+26св1151100 0.0 1020516
13:00+29св1141100 0.0 10191698
16:00+28з2144100 0.0 10181543
19:00+23с356963 0.0 1018113
22:00+21с1166100 0.1 101811
10 августа, ср
ср1001:00+20св1176100 0.7 101811
04:00+19ссз118295 0.8 101811
07:00+21з117483 0.0 101878
10:00+25з225936 0.0 1018531
13:00+28зюз334460 0.0 10181820
16:00+29зюз344092 0.0 10162401
19:00+26зюз235998 0.0 101648
22:00+18ссв369390 1.8 1017128
11 августа, чт
чт1101:00+18зсз2495100 0.9 1017104
04:00+17сз2394100 1.2 101670
07:00+18зсз358899 0.0 1017268
10:00+20зсз677866 0.1 1017839
13:00+21сз67545 0.0 10181368
16:00+17сз796897 0.1 10191150
19:00+16сз510731 0.0 10201027
22:00+13зсз37831 0.0 1021128
12 августа, пт
пт1201:00+12з49865 0.0 1021162
04:00+13зсз4879100 0.0 1021121
07:00+16з4968100 0.0 1021276
10:00+20зсз695294 0.0 1020821
13:00+23зсз7104435 0.0 10192373
16:00+23зсз794418 0.0 10172205
19:00+21зсз59565 0.0 1017366
22:00+17з4116882 0.0 1017257